CW9203 Weather Reports


Display with metric or nautical units.
time (UTC)temp
F
wind
direction
speed
MPH
gust
MPH
rain 1hr
in
rain 24hr
in
rain mn
in
humidity
%
barometer
mb
20260905024306 64 232 6.0 14.0 0.00 0.12 0.00 59 1020.1
20260905023804 64 236 7.0 13.0 0.00 0.12 0.00 59 1020.0
20260905023305 64 239 5.0 9.0 0.00 0.12 0.00 60 1020.1
20260905022306 64 257 6.0 12.0 0.00 0.12 0.00 60 1020.2
20260905021304 64 249 7.0 12.0 0.00 0.12 0.00 59 1020.0
20260905020305 64 216 7.0 15.0 0.00 0.13 0.00 58 1020.0
20260905015805 64 223 6.0 13.0 0.00 0.13 0.00 58 1020.1
20260905015307 64 214 5.0 12.0 0.00 0.13 0.00 57 1020.1
20260905014305 64 236 5.0 13.0 0.00 0.13 0.00 59 1020.2
20260905013806 64 247 6.0 12.0 0.00 0.13 0.00 60 1020.2
20260905012805 65 228 6.0 14.0 0.00 0.13 0.00 58 1020.2
20260905012306 64 230 5.0 12.0 0.00 0.13 0.00 62 1020.2
20260905011804 64 246 5.0 9.0 0.00 0.13 0.00 64 1020.2
20260905011305 64 233 3.0 14.0 0.00 0.13 0.00 64 1020.4
20260905010805 64 190 2.0 7.0 0.00 0.13 0.00 64 1020.6
20260905010305 64 198 3.0 8.0 0.00 0.13 0.00 63 1020.7
20260905005804 64 223 3.0 8.0 0.00 0.13 0.00 62 1020.7
20260905005307 63 225 3.0 7.0 0.00 0.13 0.00 62 1020.8
20260905002306 61 203 2.0 5.0 0.00 0.13 0.00 64 1021.3
20260905001805 61 143 2.0 8.0 0.00 0.13 0.00 64 1021.2
20260905000805 61 198 3.0 12.0 0.00 0.13 0.00 64 1021.4
20260904235805 61 228 4.0 10.0 0.00 0.13 0.00 64 1021.5
20260904235306 61 177 2.0 5.0 0.00 0.14 0.00 64 1021.5
20260904234305 61 132 3.0 7.0 0.00 0.14 0.00 64 1021.6
20260904233804 60 180 3.0 7.0 0.00 0.14 0.00 62 1021.6
20260904232805 60 234 2.0 6.0 0.00 0.14 0.00 63 1021.7
20260904231804 60 159 3.0 7.0 0.00 0.14 0.00 64 1021.5
20260904231304 60 169 1.0 6.0 0.00 0.14 0.00 61 1021.6
20260904230806 60 230 2.0 6.0 0.00 0.14 0.00 63 1021.6
20260904230307 61 235 3.0 9.0 0.00 0.14 0.00 64 1021.6
20260904225805 61 234 2.0 6.0 0.00 0.14 0.00 63 1021.7
20260904224306 59 223 3.0 8.0 0.00 0.14 0.00 62 1021.8
20260904222804 60 198 2.0 6.0 0.00 0.14 0.00 63 1021.9
20260904222306 60 187 2.0 3.0 0.00 0.14 0.00 61 1021.9
20260904221807 59 218 1.0 3.0 0.00 0.14 0.00 58 1021.9
20260904220805 58 195 2.0 5.0 0.00 0.14 0.00 57 1021.8
20260904220306 58 180 1.0 5.0 0.00 0.14 0.00 54 1021.8
20260904215804 58 175 1.0 6.0 0.00 0.14 0.00 57 1021.9
20260904215305 58 189 1.0 7.0 0.00 0.14 0.00 53 1021.9
20260904214304 58 197 2.0 3.0 0.00 0.14 0.00 58 1022.0
20260904213805 58 230 1.0 7.0 0.00 0.14 0.00 54 1022.0
20260904213305 57 235 3.0 6.0 0.00 0.14 0.00 56 1022.0
20260904212306 57 226 3.0 7.0 0.00 0.14 0.00 54 1022.1
20260904211307 56 232 1.0 9.0 0.00 0.14 0.00 46 1022.2
20260904210805 56 222 2.0 9.0 0.00 0.14 0.00 33 1022.2
20260904205804 56 263 3.0 5.0 0.00 0.14 0.00 12 1022.3
20260904204305 56 287 1.0 2.0 0.00 0.14 0.00 4 1022.3
20260904203805 56 245 1.0 3.0 0.00 0.14 0.00 4 1022.4
20260904203304 56 261 1.0 3.0 0.00 0.14 0.00 4 1022.4
20260904202804 56 259 1.0 3.0 0.00 0.14 0.00 4 1022.3
20260904202306 56 245 1.0 3.0 0.00 0.14 0.00 4 1022.3
20260904201805 56 257 1.0 3.0 0.00 0.14 0.00 4 1022.2
20260904201304 56 264 0.0 2.0 0.00 0.14 0.00 4 1022.2
20260904195806 55 263 1.0 3.0 0.00 0.14 0.00 4 1021.9
20260904193804 53 273 0.0 0.0 0.00 0.14 0.00 4 1021.5
20260904193307 52 273 0.0 0.0 0.00 0.14 0.00 4 1021.4
20260904192306 51 273 0.0 0.0 0.00 0.14 0.00 4 1021.3
20260904190804 50 273 0.0 0.0 0.00 0.14 0.00 4 1021.1
20260904190305 50 273 0.0 0.0 0.00 0.14 0.00 4 1021.0
20260904185306 50 273 0.0 0.0 0.00 0.14 0.00 4 1020.8
20260904184805 50 274 0.0 0.0 0.00 0.14 0.00 4 1020.7
20260904184307 50 273 0.0 0.0 0.00 0.14 0.00 4 1020.6
20260904183805 50 273 0.0 0.0 0.00 0.14 0.00 4 1020.5
20260904180304 52 184 0.0 0.0 0.00 0.14 0.00 4 1020.2
20260904174806 53 184 0.0 0.0 0.00 0.14 0.00 4 1020.2
20260904174307 53 184 0.0 0.0 0.00 0.14 0.00 4 1020.2
20260904173807 54 184 0.0 0.0 0.00 0.14 0.00 4 1020.1
20260904173304 54 184 0.0 0.0 0.00 0.14 0.00 4 1020.1
20260904172306 54 254 0.0 3.0 0.00 0.14 0.00 4 1020.1
20260904171805 54 229 2.0 5.0 0.00 0.14 0.00 4 1020.1
20260904171304 54 246 1.0 5.0 0.00 0.14 0.00 4 1020.0
20260904170805 54 249 2.0 3.0 0.00 0.14 0.00 4 1019.9
20260904164804 54 242 1.0 2.0 0.00 0.14 0.00 4 1019.7
20260904164304 54 238 1.0 5.0 0.00 0.14 0.00 4 1019.7
20260904163305 53 228 0.0 1.0 0.00 0.14 0.00 4 1019.7
20260904160804 54 247 0.0 1.0 0.00 0.14 0.00 4 1019.3
20260904160305 54 237 0.0 1.0 0.00 0.14 0.00 4 1019.2
20260904154305 54 237 0.0 2.0 0.00 0.14 0.00 4 1019.0
20260904153305 54 238 2.0 3.0 0.00 0.14 0.00 4 1019.0
20260904152306 53 236 2.0 3.0 0.00 0.14 0.00 4 1019.0
20260904151305 52 243 2.0 6.0 0.00 0.14 0.00 4 1019.1
20260904150305 52 253 0.0 0.0 0.00 0.14 0.00 4 1019.1
20260904144805 51 121 0.0 0.0 0.00 0.14 0.00 4 1019.0
20260904144306 51 145 0.0 0.0 0.00 0.14 0.00 4 1018.9
20260904143305 52 145 0.0 0.0 0.00 0.14 0.00 4 1019.0
20260904142804 52 148 0.0 0.0 0.00 0.14 0.00 4 1019.0
20260904141806 52 220 0.0 0.0 0.00 0.14 0.00 4 1019.0
20260904140805 52 273 0.0 0.0 0.00 0.14 0.00 4 1019.0
20260904140305 52 273 0.0 0.0 0.00 0.14 0.00 4 1019.0
20260904135306 53 273 0.0 1.0 0.00 0.14 0.00 4 1019.0
20260904134305 53 275 0.0 0.0 0.00 0.14 0.00 4 1018.9
20260904133305 54 274 0.0 0.0 0.00 0.14 0.00 4 1018.8
20260904132807 54 273 0.0 0.0 0.00 0.14 0.00 4 1018.7
20260904131804 55 264 2.0 3.0 0.00 0.14 0.00 4 1018.6
20260904131305 55 269 1.0 3.0 0.00 0.14 0.00 4 1018.6
20260904124806 55 241 1.0 3.0 0.00 0.14 0.00 4 1018.4
20260904122307 55 215 2.0 5.0 0.00 0.14 0.00 4 1018.1
20260904121805 55 231 3.0 6.0 0.00 0.14 0.00 4 1018.1
20260904121305 55 229 3.0 6.0 0.00 0.14 0.00 4 1018.0
20260904120824 55 223 2.0 5.0 0.00 0.14 0.00 4 1018.1
20260904115806 55 229 2.0 6.0 0.00 0.14 0.14 4 1018.1
20260904114805 55 238 5.0 10.0 0.00 0.14 0.14 4 1018.2
20260904114305 55 244 2.0 9.0 0.00 0.14 0.14 4 1018.2
20260904113307 55 236 3.0 6.0 0.00 0.14 0.14 4 1018.1
20260904112805 55 230 2.0 6.0 0.00 0.14 0.14 4 1018.1
20260904111804 55 220 2.0 7.0 0.00 0.14 0.14 4 1018.2
20260904111306 55 228 3.0 7.0 0.00 0.14 0.14 4 1018.2
20260904110806 55 211 3.0 8.0 0.00 0.14 0.14 4 1018.2
20260904110306 55 216 3.0 8.0 0.00 0.14 0.14 4 1018.2
20260904105805 55 211 3.0 8.0 0.00 0.14 0.14 4 1018.1
20260904105306 55 223 3.0 7.0 0.00 0.14 0.14 4 1018.0
20260904104805 55 223 2.0 6.0 0.00 0.14 0.14 4 1018.0
20260904103306 55 230 3.0 6.0 0.00 0.14 0.14 4 1018.0
20260904102804 55 218 4.0 8.0 0.00 0.14 0.14 4 1017.9
20260904102307 55 237 3.0 10.0 0.00 0.14 0.14 4 1017.9
20260904101806 55 227 2.0 6.0 0.00 0.14 0.14 4 1017.9
20260904100305 54 234 4.0 6.0 0.00 0.14 0.14 4 1017.7
20260904094805 55 240 2.0 5.0 0.00 0.14 0.14 4 1017.7
20260904094306 55 228 2.0 8.0 0.00 0.14 0.14 4 1017.6
20260904093806 55 234 2.0 9.0 0.00 0.14 0.14 4 1017.5
20260904092806 55 233 3.0 6.0 0.00 0.14 0.14 4 1017.3
20260904091805 56 235 3.0 7.0 0.00 0.14 0.14 4 1017.1
20260904090804 57 249 3.0 8.0 0.00 0.14 0.14 4 1017.0
20260904085805 57 250 2.0 7.0 0.00 0.15 0.14 4 1016.7
20260904084805 57 222 3.0 10.0 0.00 0.15 0.14 4 1016.6
20260904082807 57 195 4.0 13.0 0.00 0.20 0.14 4 1016.4
20260904082306 57 238 2.0 6.0 0.00 0.20 0.14 4 1016.3
20260904081804 58 216 2.0 7.0 0.00 0.20 0.14 4 1016.2
20260904081304 58 241 1.0 5.0 0.00 0.20 0.14 4 1016.1
20260904075806 58 218 2.0 13.0 0.00 0.21 0.14 4 1016.0
20260904075307 58 269 2.0 10.0 0.00 0.21 0.14 4 1015.9
20260904074805 58 249 2.0 7.0 0.00 0.21 0.14 4 1015.8
20260904072804 58 223 4.0 8.0 0.00 0.22 0.14 4 1015.6
20260904072306 58 212 4.0 12.0 0.00 0.22 0.14 4 1015.5
20260904071805 58 227 3.0 12.0 0.00 0.22 0.14 4 1015.4
20260904070305 58 239 3.0 12.0 0.00 0.22 0.14 4 1015.1
20260904065804 58 204 3.0 12.0 0.00 0.22 0.14 4 1015.0
20260904064806 58 202 3.0 10.0 0.00 0.22 0.14 4 1014.8
20260904064305 58 229 3.0 10.0 0.00 0.22 0.14 4 1014.7
20260904062804 58 209 3.0 12.0 0.00 0.24 0.14 4 1014.4
20260904062306 58 222 3.0 15.0 0.00 0.26 0.14 4 1014.3
20260904061805 58 195 5.0 10.0 0.00 0.28 0.14 4 1014.3
20260904060304 58 211 6.0 13.0 0.00 0.28 0.14 4 1014.1
20260904055804 59 185 3.0 20.0 0.01 0.28 0.14 4 1014.0
20260904055306 59 212 6.0 13.0 0.01 0.28 0.14 4 1014.0
20260904054305 60 213 3.0 12.0 0.01 0.28 0.14 4 1014.0
20260904052806 60 242 9.0 16.0 0.02 0.28 0.14 4 1013.8
20260904051305 60 251 10.0 20.0 0.02 0.28 0.14 4 1013.8
20260904045805 60 251 7.0 13.0 0.02 0.28 0.13 4 1013.5
20260904044304 60 244 9.0 20.0 0.02 0.28 0.13 4 1013.1
20260904043304 60 266 7.0 14.0 0.00 0.26 0.12 4 1013.1
20260904042805 60 258 8.0 20.0 0.01 0.26 0.12 4 1013.2
20260904041805 60 279 9.0 16.0 0.02 0.26 0.12 4 1013.2
20260904041304 60 240 8.0 14.0 0.02 0.26 0.12 4 1013.3
20260904040804 60 234 8.0 16.0 0.02 0.26 0.12 4 1013.4
20260904035306 60 266 10.0 16.0 0.06 0.26 0.12 4 1013.5
20260904034805 60 263 7.0 14.0 0.06 0.26 0.12 4 1013.4
20260904033304 60 266 7.0 14.0 0.09 0.26 0.12 4 1013.4
20260904032805 60 254 10.0 15.0 0.09 0.25 0.11 4 1013.4
20260904030804 61 276 8.0 14.0 0.08 0.24 0.10 4 1013.5
20260904030305 61 269 8.0 14.0 0.06 0.23 0.09 4 1013.6
20260904024805 62 262 11.0 22.0 0.04 0.20 0.06 4 1013.6